TimePDT,TemperatureF,Dew PointF,Humidity,Sea Level PressureIn,VisibilityMPH,Wind Direction,Wind SpeedMPH,Gust SpeedMPH,PrecipitationIn,Events,Conditions,WindDirDegrees,DateUTC
12:53 AM,66.0,48.0,52,29.94,10.0,North,4.6,-,N/A,,Clear,10,2013-08-22 07:53:00
1:53 AM,64.0,48.9,58,29.94,10.0,Calm,Calm,-,N/A,,Clear,0,2013-08-22 08:53:00
2:53 AM,60.1,48.9,67,29.94,10.0,Calm,Calm,-,N/A,,Clear,0,2013-08-22 09:53:00
3:53 AM,59.0,48.9,69,29.94,10.0,Calm,Calm,-,N/A,,Clear,0,2013-08-22 10:53:00
4:53 AM,59.0,48.9,69,29.93,10.0,Calm,Calm,-,N/A,,Clear,0,2013-08-22 11:53:00
5:53 AM,57.0,48.9,74,29.92,10.0,NNW,3.5,-,N/A,,Clear,330,2013-08-22 12:53:00
6:53 AM,57.9,48.9,72,29.92,10.0,Calm,Calm,-,N/A,,Clear,0,2013-08-22 13:53:00
7:53 AM,61.0,50.0,67,29.93,10.0,SE,4.6,-,N/A,,Clear,130,2013-08-22 14:53:00
8:53 AM,64.0,51.1,63,29.92,10.0,Calm,Calm,-,N/A,,Clear,0,2013-08-22 15:53:00
9:53 AM,66.9,51.1,57,29.92,10.0,Calm,Calm,-,N/A,,Clear,0,2013-08-22 16:53:00
10:53 AM,69.1,52.0,54,29.92,10.0,NE,3.5,-,N/A,,Clear,40,2013-08-22 17:53:00
11:53 AM,72.0,48.9,44,29.91,10.0,Variable,5.8,-,N/A,,Clear,0,2013-08-22 18:53:00
12:53 PM,73.9,48.0,40,29.89,10.0,North,6.9,-,N/A,,Clear,10,2013-08-22 19:53:00
1:53 PM,78.1,48.9,36,29.87,10.0,North,6.9,-,N/A,,Clear,350,2013-08-22 20:53:00
2:53 PM,80.1,48.0,32,29.86,10.0,NE,6.9,-,N/A,,Clear,40,2013-08-22 21:53:00
3:53 PM,79.0,48.9,35,29.84,10.0,ESE,3.5,-,N/A,,Clear,120,2013-08-22 22:53:00
4:53 PM,79.0,48.0,34,29.82,10.0,NNE,4.6,-,N/A,,Clear,30,2013-08-22 23:53:00
5:53 PM,79.0,48.9,35,29.82,10.0,NE,3.5,-,N/A,,Clear,50,2013-08-23 00:53:00
6:53 PM,80.1,48.9,34,29.82,10.0,Calm,Calm,-,N/A,,Clear,0,2013-08-23 01:53:00
7:53 PM,77.0,50.0,39,29.83,10.0,Calm,Calm,-,N/A,,Clear,0,2013-08-23 02:53:00
8:53 PM,73.0,53.1,49,29.84,10.0,WSW,4.6,-,N/A,,Clear,240,2013-08-23 03:53:00
9:53 PM,72.0,48.0,43,29.84,10.0,Calm,Calm,-,N/A,,Clear,0,2013-08-23 04:53:00
10:53 PM,69.1,48.0,47,29.84,10.0,Calm,Calm,-,N/A,,Clear,0,2013-08-23 05:53:00
11:53 PM,66.9,50.0,54,29.85,10.0,SW,5.8,-,N/A,,Clear,230,2013-08-23 06:53:00